GFSSGP_700_rhum_000.txt.gz
RH
2 1 5 15 16 17 17 16 16 20 22 30 24 21 26 35 33 42 32 14 17 21 19 19 20 22 23 24 24 23 23 22 23 23 23 26 35 46 67 69 63 65 50 52 63 52 56 54 59
1 2 11 17 18 19 18 17 16 16 23 40 25 40 38 35 42 30 23 20 22 22 22 20 21 20 18 16 14 15 15 16 18 20 22 22 22 39 49 44 48 38 40 37 63 56 59 68 80
4 16 17 16 18 18 18 18 16 20 26 26 30 35 32 30 36 22 20 20 23 22 20 19 17 14 11 10 11 10 10 13 17 18 19 20 21 22 24 29 33 34 36 40 61 57 59 64 76
16 14 13 15 17 17 18 19 21 23 24 24 38 43 43 40 37 20 21 24 25 21 16 12 10 11 12 11 11 13 13 16 18 21 21 20 18 16 15 13 11 18 23 37 51 83 94 76 83
12 12 13 13 15 16 20 24 33 37 34 37 42 44 43 38 21 22 22 22 16 13 14 14 12 10 9 9 11 13 14 15 17 18 19 19 18 18 16 17 14 15 13 29 37 48 61 94 97
13 13 13 13 12 11 15 23 27 33 34 33 34 40 42 41 32 18 13 14 11 12 12 11 10 11 14 12 10 11 11 12 16 18 19 19 19 18 21 19 16 21 20 24 34 43 50 48 35
13 13 12 13 13 12 11 15 22 19 24 22 16 22 36 44 40 26 22 17 15 14 17 17 18 18 19 19 22 25 28 28 29 26 27 22 22 23 25 28 24 22 22 25 38 45 59 61 58
17 16 13 13 12 12 14 11 13 16 14 18 18 19 19 34 40 33 34 36 23 22 34 41 29 23 22 29 34 33 31 32 36 40 20 22 25 31 28 24 22 19 17 10 6 23 15 31 57
16 14 13 14 13 13 12 14 17 15 14 18 20 25 30 28 34 41 39 28 22 33 50 39 34 30 34 33 30 20 18 24 34 35 15 8 13 19 23 20 10 6 6 6 6 8 9 8 21
15 13 14 14 14 15 14 13 16 17 16 20 23 30 31 28 27 23 24 25 32 70 62 54 62 34 29 21 9 7 6 11 12 11 9 8 9 9 9 8 8 8 10 11 12 13 13 12 25
19 16 17 15 11 12 14 15 18 15 22 23 26 24 24 22 16 17 22 29 63 72 71 50 45 28 16 8 6 7 4 8 10 12 14 15 16 17 17 17 17 17 17 19 23 26 24 20 19
14 9 4 4 5 4 4 4 10 20 18 18 19 19 13 3 4 9 10 24 24 30 26 27 28 21 14 7 4 4 8 13 17 22 25 25 23 22 21 20 20 21 23 24 26 29 32 31 26
13 16 16 23 17 18 10 10 16 14 15 16 12 15 8 4 4 8 21 19 12 13 14 13 12 13 8 6 8 15 21 25 27 29 29 28 24 23 23 24 24 24 25 26 26 27 30 34 34
16 18 25 24 25 19 19 14 18 20 19 18 17 17 19 20 12 9 12 16 17 20 15 13 12 11 12 12 15 27 31 29 29 35 39 40 41 42 43 45 46 47 45 40 35 32 35 35 34
27 25 26 23 28 21 21 18 18 19 22 22 18 19 19 22 24 25 26 25 28 30 30 32 26 22 22 22 25 34 33 32 33 34 35 39 46 50 50 51 53 54 56 60 61 58 52 47 39
24 24 25 24 25 22 22 23 24 23 20 18 22 22 20 24 27 29 30 33 38 36 33 36 32 28 26 27 31 32 33 38 40 43 44 45 46 49 48 45 48 51 53 57 60 61 57 53 49
17 24 23 24 25 26 26 27 23 23 27 26 25 24 22 26 26 28 31 35 40 42 44 46 37 33 34 33 36 40 41 41 42 42 44 46 45 46 49 52 56 59 59 58 58 57 56 54 51
21 21 22 27 27 23 22 23 23 26 24 22 21 22 23 24 25 27 30 29 34 41 44 43 35 37 40 43 43 45 48 49 51 53 53 53 54 57 59 60 59 58 56 55 55 54 53 52 55
27 19 27 29 29 21 19 25 23 24 26 25 22 20 24 21 22 23 23 26 27 31 36 38 40 44 46 48 50 50 49 46 48 57 60 60 59 59 63 64 63 62 61 61 62 62 61 64 64
28 20 28 18 23 29 28 19 20 20 25 24 22 12 18 19 21 24 29 32 34 33 34 41 42 43 49 51 51 48 46 48 47 50 60 63 65 66 65 66 67 69 70 70 69 69 69 70 71
28 20 21 31 29 34 35 24 24 24 24 24 22 21 24 26 27 29 34 38 40 39 43 41 49 47 51 54 47 43 42 43 48 52 57 64 68 70 72 72 70 75 80 86 83 78 74 77 71
21 31 29 31 36 40 41 42 28 25 24 25 26 25 28 37 38 38 37 40 46 47 48 48 55 54 55 60 61 58 57 54 56 56 63 68 73 74 74 76 74 74 86 95 97 94 90 84 73
35 30 30 30 39 42 37 40 30 30 31 28 27 29 36 41 41 41 47 53 57 57 58 61 64 66 68 77 77 66 56 50 54 62 80 80 85 72 73 74 74 77 83 90 98 97 96 92 93
44 37 31 39 39 48 45 44 34 36 35 30 32 38 40 40 48 52 56 64 68 69 67 66 76 76 76 87 87 53 51 49 53 66 83 94 96 91 98 94 89 88 88 95 88 92 98 98 92
46 40 49 54 67 65 36 39 40 38 40 40 44 50 52 52 59 62 65 66 68 72 68 74 82 92 89 92 69 50 49 44 53 58 72 82 96 98 97 94 95 94 95 97 97 96 90 95 94
57 53 60 78 84 64 41 43 43 44 42 50 52 58 59 59 61 64 64 70 71 72 81 89 90 96 84 72 58 56 47 42 50 56 55 54 70 98 97 97 99 100 98 91 95 95 99 97 94
58 56 59 62 64 74 53 46 42 38 45 54 57 56 60 64 65 62 64 70 75 83 86 90 83 76 73 62 60 57 44 46 44 40 43 47 60 86 95 98 96 92 98 97 96 92 87 95 94
58 60 63 71 85 94 63 54 48 42 46 52 59 61 57 67 69 63 63 68 77 80 78 77 82 65 58 59 52 45 47 41 40 45 59 85 98 98 98 96 97 97 96 94 94 94 92 89 83
55 66 68 71 76 91 97 71 53 49 64 56 57 60 64 67 61 70 76 80 84 87 84 72 62 62 56 48 38 33 27 34 46 61 79 94 100 99 98 97 93 93 95 96 93 86 77 68 52
67 66 72 87 81 83 84 76 51 67 50 64 68 71 72 63 64 62 67 75 77 66 66 66 63 58 45 30 24 25 34 45 67 78 89 98 96 98 95 91 86 78 83 75 62 41 14 6 7

GFSSGP_700_rhum_003.txt.gz
RH
1 1 6 18 18 18 16 15 16 18 26 36 38 46 39 34 31 40 12 14 22 19 18 22 24 26 25 28 22 20 17 15 22 29 33 39 38 37 40 47 53 43 50 49 53 68 58 57 57
1 7 17 19 18 18 18 18 16 24 28 37 35 43 28 29 30 27 22 26 25 23 22 22 19 14 14 12 12 11 11 13 18 23 27 27 26 23 34 30 24 25 27 27 45 63 54 62 64
10 18 19 19 19 20 22 19 21 22 22 30 43 45 38 40 30 24 23 23 23 22 20 18 17 13 12 12 12 13 13 16 17 20 22 21 19 17 16 18 21 25 23 22 38 57 61 66 70
15 14 16 17 18 20 24 23 22 29 32 35 38 41 43 39 25 22 22 25 23 21 17 12 13 12 10 9 11 12 12 15 17 20 20 21 21 21 18 14 12 12 14 12 22 30 48 71 78
13 13 14 16 18 19 24 30 27 34 32 35 37 36 40 39 24 23 24 25 20 12 12 12 11 12 14 15 14 13 15 15 14 15 15 18 20 22 24 25 25 24 22 20 19 22 29 78 87
12 12 12 13 16 15 15 19 25 30 31 29 26 21 43 45 24 13 9 11 11 11 14 18 18 19 19 17 18 23 27 28 29 29 31 30 23 25 29 33 31 25 22 23 24 30 32 46 48
15 13 13 12 11 11 10 12 17 15 14 16 12 15 29 30 33 30 22 22 29 24 23 26 33 30 22 20 30 30 25 22 26 30 34 13 8 22 34 28 17 16 14 14 17 16 19 28 36
15 12 13 13 12 13 11 12 14 14 14 14 20 23 23 23 22 32 28 27 23 22 29 34 33 36 30 30 24 11 7 13 20 29 15 6 5 8 12 15 14 4 3 6 9 10 8 8 9
12 11 13 12 12 12 13 15 14 15 17 17 20 25 25 23 24 22 22 19 15 21 35 32 34 44 35 31 20 11 5 8 8 10 8 8 9 10 9 8 7 6 6 7 9 10 11 12 11
12 12 13 14 15 14 13 14 15 16 17 20 22 24 21 20 18 11 14 14 16 24 34 25 45 50 42 31 19 13 7 10 13 15 17 20 22 22 23 23 22 19 18 17 16 18 18 22 19
16 15 16 13 12 13 15 15 13 10 15 15 14 18 16 8 4 6 10 14 14 23 22 44 51 50 30 21 8 6 8 16 21 22 25 26 27 28 26 26 26 26 26 24 24 25 28 30 31
6 4 17 13 15 5 6 6 9 8 7 5 9 17 16 14 6 4 9 9 8 15 21 35 25 23 19 16 10 7 14 24 29 30 31 34 36 35 34 32 30 29 28 27 26 27 27 29 32
15 18 20 20 18 19 19 16 18 18 17 12 16 18 19 21 22 16 11 13 17 25 34 37 38 37 28 21 20 19 21 30 30 29 31 33 35 38 40 43 46 47 47 47 44 40 32 29 32
17 19 23 24 24 20 18 17 18 18 17 17 18 19 20 22 23 25 26 27 29 35 40 43 45 37 31 29 27 27 28 31 30 30 32 35 38 40 44 48 49 49 52 55 57 59 58 54 44
24 23 24 26 25 24 22 22 18 27 26 18 20 22 21 23 25 26 28 30 34 38 42 45 45 42 34 36 35 32 33 35 39 42 44 46 48 49 49 48 48 48 49 48 50 55 61 62 59
24 25 24 23 22 25 25 22 26 25 26 23 21 24 23 24 27 25 26 29 31 34 41 42 46 38 36 37 39 41 42 42 43 44 45 46 47 48 47 46 47 49 51 53 55 56 57 56 56
14 24 24 24 26 29 28 26 23 26 24 21 20 24 25 24 26 26 29 30 27 30 37 44 38 38 39 41 45 45 47 48 47 46 44 46 49 51 54 56 58 58 57 57 57 57 56 56 56
18 16 18 29 30 27 23 20 20 27 24 23 22 22 26 24 24 26 30 28 27 32 43 46 42 44 43 43 50 47 45 40 42 48 50 48 51 54 56 58 60 60 61 60 60 60 60 59 59
23 27 20 29 27 21 24 24 19 21 22 23 23 20 19 24 26 30 27 30 34 39 44 44 46 52 54 51 49 51 51 46 43 42 49 53 57 60 60 59 61 63 62 62 61 61 62 63 63
30 28 19 14 25 28 32 22 21 21 24 23 22 17 17 20 24 25 28 32 41 40 40 40 45 53 60 57 55 55 60 52 47 42 46 56 58 58 54 53 56 58 57 57 56 56 56 60 65
23 21 25 33 31 39 34 24 26 25 24 23 24 20 26 26 32 36 37 39 48 51 48 52 54 61 66 68 69 68 72 68 53 47 39 41 52 58 72 81 82 93 86 75 72 70 65 60 59
28 29 29 33 38 41 36 34 34 28 28 28 28 29 34 37 40 40 45 53 54 54 56 61 64 62 64 67 66 70 78 76 59 49 46 43 50 73 89 86 94 100 96 95 89 85 80 83 81
35 27 31 32 43 43 40 39 40 38 34 33 32 33 38 40 43 50 53 55 57 58 64 64 65 70 79 76 81 81 87 71 60 45 43 38 39 49 62 93 97 98 91 97 96 97 99 100 100
41 30 31 42 45 48 48 46 44 39 37 34 37 39 45 53 56 57 57 60 61 65 66 69 69 70 71 79 78 74 70 65 49 49 48 40 40 48 55 88 90 100 90 89 95 98 99 94 97
49 29 38 52 65 66 47 46 47 46 52 50 48 53 57 59 61 60 61 63 66 69 74 76 79 79 81 82 81 71 56 49 48 46 40 37 37 37 40 50 70 99 92 97 97 97 98 100 96
55 53 58 68 85 68 46 49 52 56 60 56 55 64 62 62 64 66 70 67 72 80 79 75 80 84 78 70 61 55 53 48 41 35 28 27 29 38 41 51 82 99 94 98 100 98 97 98 98
60 61 61 63 68 79 57 52 50 45 50 66 63 57 63 65 68 74 72 70 73 74 77 75 71 69 62 60 58 53 44 29 22 20 20 26 35 48 62 79 95 100 100 100 100 97 97 96 96
61 63 62 65 84 90 63 52 47 52 59 52 61 66 70 76 76 71 69 70 69 74 78 75 66 63 62 56 47 36 27 20 18 22 31 47 75 90 96 96 96 97 99 97 96 96 95 93 94
60 63 70 68 72 88 96 68 56 52 64 68 64 70 74 75 73 67 68 70 80 76 69 61 57 60 53 43 29 16 15 14 13 19 39 76 95 97 98 99 95 97 94 91 88 73 62 60 58
63 68 62 71 70 72 76 74 59 66 65 68 76 73 72 71 72 72 76 84 81 85 76 64 60 51 36 16 17 22 14 11 18 33 57 98 98 95 96 95 95 96 93 86 72 65 55 32 12

GFSSGP_700_rhum_009.txt.gz
RH
1 1 11 17 20 25 24 45 42 46 51 44 38 35 30 27 29 40 18 25 20 24 27 26 26 30 40 39 34 28 18 15 16 16 15 15 18 24 30 30 56 72 68 72 72 75 85 88 64
4 16 19 18 17 22 36 27 34 40 48 48 40 34 29 27 25 18 20 23 22 24 24 20 16 13 13 12 12 12 12 12 14 15 14 16 19 23 28 48 53 59 54 52 55 38 34 36 38
19 20 19 18 18 20 37 29 26 30 48 50 42 34 24 26 24 24 26 26 22 18 15 13 12 12 13 15 15 14 14 14 14 14 14 14 20 21 21 21 24 25 22 22 20 18 21 22 27
20 18 21 20 20 22 27 31 33 37 42 45 37 32 22 30 23 23 23 22 20 13 12 13 14 15 18 21 19 16 18 21 22 27 24 23 21 15 15 19 24 24 23 22 21 21 18 18 16
18 20 19 18 26 30 34 39 35 34 31 29 30 27 24 28 23 25 24 18 14 12 13 16 19 22 25 24 27 28 26 23 21 21 25 27 24 13 19 25 25 24 25 25 24 22 22 23 21
17 15 15 24 32 34 34 29 26 26 24 24 17 12 22 26 25 22 16 15 14 16 23 23 32 35 31 32 31 27 12 7 11 15 23 17 5 6 10 21 27 26 18 14 15 18 24 27 28
15 13 13 14 17 18 17 16 17 18 18 16 16 15 28 24 27 13 12 20 25 29 24 36 42 40 38 32 19 9 4 6 7 17 18 7 7 9 8 9 12 10 4 4 7 10 14 11 15
13 12 11 12 12 13 14 14 14 14 16 19 16 23 18 21 27 29 22 32 42 28 21 42 39 33 20 15 12 8 5 5 8 10 11 13 16 21 22 21 19 19 17 12 8 9 11 12 12
12 11 12 12 12 12 13 14 14 13 16 19 21 22 19 17 14 15 22 27 23 18 37 31 18 19 14 10 7 5 8 8 8 15 18 19 21 23 25 26 27 27 27 26 24 19 16 18 20
10 11 12 12 14 13 14 15 15 12 13 14 15 8 4 2 2 6 14 17 16 27 26 14 13 23 20 16 14 13 8 9 17 25 27 26 25 26 27 28 29 29 29 29 29 28 27 26 26
12 13 13 12 13 14 14 14 11 8 7 8 12 17 19 14 7 5 8 11 14 17 22 26 32 33 31 32 31 30 27 24 24 26 28 29 29 29 30 31 31 32 33 34 35 34 33 31 30
10 13 14 15 5 8 10 13 15 15 10 17 20 21 22 23 23 16 14 15 22 34 35 36 40 40 37 34 34 34 33 33 34 35 36 37 38 39 38 39 38 37 37 37 37 38 39 40 40
18 18 20 21 21 20 14 17 17 19 13 18 19 21 23 24 26 27 27 28 30 31 36 36 39 38 37 39 38 37 37 38 38 39 40 40 42 43 43 43 42 41 41 42 43 43 43 42 43
20 22 24 24 23 21 18 18 19 22 25 20 20 20 21 24 26 28 29 33 37 40 44 44 46 46 43 46 43 40 41 43 43 47 47 41 36 35 36 41 43 44 44 44 44 44 44 44 44
21 24 25 24 25 24 22 22 20 24 27 26 20 22 22 23 25 27 27 31 33 36 39 41 48 49 47 49 49 48 50 50 50 52 50 47 44 39 36 40 45 47 47 48 49 51 50 51 51
22 23 24 24 25 25 25 24 26 26 26 28 25 22 24 24 25 26 28 30 34 37 39 40 46 50 50 46 48 53 53 56 56 56 48 60 56 48 39 42 49 54 53 52 52 54 54 55 55
19 18 18 26 28 30 30 26 25 22 22 26 27 23 24 26 25 26 28 31 33 34 34 37 46 51 51 49 48 56 59 60 61 58 60 59 63 58 50 42 42 52 50 48 49 48 48 47 49
17 21 23 23 22 24 25 21 26 18 21 23 25 22 24 26 26 27 29 31 31 32 35 38 45 51 51 50 53 55 57 64 63 61 60 61 59 58 52 46 41 40 41 40 49 52 53 52 48
19 22 24 21 20 19 22 30 25 21 21 23 26 23 22 26 28 30 31 32 32 38 50 45 49 51 51 52 47 59 65 64 63 62 61 66 70 67 58 48 42 42 41 39 39 54 59 52 62
26 24 22 24 25 24 31 29 26 26 27 26 24 23 19 25 31 33 34 32 36 50 56 56 53 56 51 62 66 69 75 75 75 75 75 77 74 61 54 47 44 44 44 45 45 46 55 74 68
31 29 30 30 26 29 37 33 31 27 27 29 28 26 22 27 32 34 38 46 54 56 61 63 63 64 67 71 74 81 84 84 86 85 84 71 58 51 46 43 41 44 47 46 46 47 55 68 87
29 32 33 36 37 41 40 34 38 33 31 32 33 31 31 36 40 48 56 56 60 64 67 68 69 70 71 77 80 80 82 84 85 82 70 55 50 46 39 34 28 26 28 29 32 42 49 74 95
37 34 34 34 39 45 45 40 43 41 38 37 36 36 40 44 56 56 59 62 63 69 72 72 73 72 74 79 79 80 84 89 90 76 56 52 47 38 25 24 23 18 14 14 15 17 26 52 83
40 33 40 48 50 51 50 47 50 46 45 43 40 45 49 58 60 61 60 63 68 72 74 72 73 76 78 79 81 88 91 88 75 73 65 49 34 30 28 25 17 15 17 17 14 10 16 25 46
42 33 38 48 56 54 48 48 56 55 52 49 50 58 61 62 61 60 61 64 75 77 78 79 79 80 82 85 90 90 84 84 83 67 38 37 32 32 30 26 20 13 10 12 16 28 39 54 77
48 44 50 54 63 61 48 55 59 58 55 52 61 62 62 60 61 64 68 72 78 81 87 85 86 86 85 81 83 88 90 70 48 31 43 42 36 28 21 18 14 13 19 42 53 72 70 84 98
52 52 55 58 71 77 54 59 62 61 60 63 64 61 62 68 71 74 76 79 84 90 92 91 96 87 80 90 90 77 63 51 35 54 45 28 20 17 15 12 18 64 70 84 99 99 98 98 97
58 60 56 57 74 68 56 59 49 57 64 64 58 58 64 70 74 79 84 88 91 94 92 92 92 88 89 97 93 76 52 40 61 24 17 12 13 14 20 45 82 84 92 96 99 98 96 96 95
66 67 65 59 72 80 91 60 44 47 51 61 65 64 62 70 79 85 88 90 88 88 78 72 79 86 89 93 88 78 67 54 38 25 15 13 21 36 63 88 94 97 96 97 94 97 96 96 95
68 67 63 60 60 71 82 65 47 54 54 65 65 60 68 70 76 81 73 68 64 66 73 68 70 79 92 86 81 68 52 33 17 12 13 25 45 67 99 99 96 98 97 96 98 94 95 95 95

GFSSGP_700_rhum_012.txt.gz
RH
2 1 6 14 18 21 28 33 42 57 57 32 29 54 40 23 43 61 23 22 23 30 33 36 39 39 42 42 31 24 14 14 15 15 16 19 25 30 46 57 62 73 73 75 76 72 71 77 88
1 7 14 18 17 18 27 34 40 58 37 33 28 28 35 25 25 17 25 24 27 27 27 25 20 13 12 12 12 13 14 14 15 14 14 16 22 21 21 26 33 35 48 52 37 33 26 26 29
13 16 20 17 16 21 27 37 58 44 41 38 35 29 21 25 22 25 25 23 23 18 14 13 12 12 14 16 17 16 15 15 15 16 16 16 15 17 21 23 23 23 22 20 19 18 17 17 20
20 19 18 18 20 33 35 48 53 42 44 40 49 30 23 25 27 27 24 20 16 13 12 13 14 15 18 21 21 20 22 22 20 22 24 26 25 23 20 18 18 21 23 25 26 28 27 25 23
19 22 21 21 28 34 42 52 57 50 57 38 31 25 21 23 23 23 22 18 15 13 14 16 19 21 22 24 23 24 22 15 9 11 18 24 26 10 6 9 16 22 24 25 24 19 19 22 27
20 24 20 22 30 40 44 41 45 41 40 24 26 14 25 25 25 25 19 15 15 14 21 23 18 18 24 24 25 20 8 6 11 16 20 20 6 5 7 8 12 16 14 11 6 8 12 20 22
18 18 18 21 27 28 28 20 37 35 38 36 17 37 26 27 25 22 15 15 20 27 26 22 22 30 33 26 13 8 3 4 5 7 9 8 8 10 13 12 8 7 6 5 5 7 9 11 9
13 14 15 16 15 15 16 18 15 26 27 17 19 33 27 26 26 13 13 24 32 35 27 28 37 25 13 8 6 5 6 5 5 8 12 15 17 21 22 23 25 24 21 20 19 15 11 10 11
11 12 12 13 13 16 14 16 14 15 24 16 21 38 23 18 21 26 28 34 41 28 25 35 19 12 14 13 12 8 5 6 6 14 22 24 23 23 23 24 25 26 27 27 27 26 25 23 22
14 12 14 13 15 15 15 16 16 21 24 20 18 14 9 7 12 13 18 20 18 21 30 16 15 24 27 29 29 27 23 18 17 19 23 26 28 28 28 28 29 30 31 31 31 31 30 28 28
13 14 12 12 12 16 15 15 11 18 21 22 24 13 10 5 4 8 11 16 12 15 16 21 31 33 34 36 36 35 33 32 33 34 37 37 37 37 37 37 36 36 35 35 34 35 36 36 37
10 11 13 6 8 11 18 15 17 19 17 16 21 21 22 22 13 9 11 46 62 29 29 33 34 36 40 41 40 37 37 38 39 40 41 42 41 40 41 43 44 44 44 43 42 42 42 42 42
18 19 19 20 20 16 16 17 20 14 15 18 20 22 23 25 25 24 25 67 64 32 37 39 40 42 43 44 43 45 44 44 43 44 47 45 43 40 38 35 36 41 45 46 47 47 46 44 44
21 22 23 24 23 20 21 20 20 23 23 17 19 20 22 24 26 27 26 30 34 40 43 42 42 43 43 46 47 50 51 50 52 54 54 49 47 49 48 42 38 36 39 44 46 48 50 51 50
21 25 26 24 26 22 21 23 24 24 26 26 20 21 22 22 24 27 29 32 36 38 37 39 41 42 46 49 47 48 52 50 56 59 60 57 45 43 41 43 42 37 35 35 38 40 41 42 43
25 25 22 25 25 24 25 22 27 25 26 26 27 21 23 23 24 26 29 31 32 35 37 39 42 48 53 51 50 49 50 52 61 65 62 54 55 53 51 51 46 45 42 37 36 36 36 36 37
21 16 21 28 26 27 27 27 32 22 21 25 26 26 23 24 25 26 27 30 32 34 36 39 45 55 55 53 51 50 52 56 61 68 62 53 55 58 59 51 48 49 42 39 37 37 37 36 35
19 19 21 23 25 21 29 30 21 20 19 28 27 24 23 26 26 27 30 30 32 34 34 39 48 47 53 53 53 50 47 60 67 64 59 61 66 66 64 56 41 38 40 40 40 40 42 41 41
14 24 26 27 17 20 31 35 26 23 22 24 26 25 25 28 28 32 34 33 33 35 42 49 48 48 52 54 56 56 63 65 70 72 72 77 70 68 61 58 48 44 42 41 42 43 44 46 48
25 29 29 32 24 24 39 34 26 26 28 27 27 24 22 27 30 33 35 35 37 41 52 55 56 53 57 55 62 66 70 74 77 80 82 83 84 87 85 64 50 46 37 31 28 28 30 32 36
33 35 43 41 40 28 39 36 34 26 26 28 27 24 24 31 35 36 38 44 50 54 56 59 61 62 63 66 69 72 75 76 80 88 90 87 88 81 58 55 50 36 28 26 24 22 19 19 21
37 33 32 32 41 27 33 25 39 31 30 32 32 30 34 37 41 45 54 55 58 60 62 68 69 68 69 70 73 76 77 80 82 84 87 88 89 75 66 47 34 31 28 29 27 22 14 11 11
50 35 33 34 45 42 41 30 42 39 40 44 40 38 39 44 48 56 58 59 60 64 70 71 70 70 72 76 81 80 83 88 91 84 82 78 68 64 44 41 36 31 26 20 18 17 17 18 18
39 34 38 48 54 42 49 41 40 44 51 50 41 42 46 49 56 60 61 61 63 68 71 73 79 82 83 92 89 92 96 74 66 60 68 72 74 41 40 47 30 22 16 14 14 14 14 14 16
52 48 38 49 47 42 46 42 56 55 48 46 44 47 53 60 62 60 62 65 68 72 79 82 84 92 92 90 92 77 70 74 72 76 76 71 49 50 44 42 33 23 14 13 14 14 18 26 36
46 55 53 50 46 40 51 37 51 54 53 51 51 58 62 61 60 64 68 70 72 77 79 81 83 86 88 72 59 66 74 73 76 82 77 71 61 50 42 20 13 9 11 16 26 51 53 72 79
57 60 48 58 57 68 44 53 51 57 62 58 61 62 58 58 57 57 64 72 77 80 87 82 79 67 58 61 59 59 60 63 73 79 78 62 48 34 18 10 11 20 34 61 78 88 97 100 100
57 53 57 56 71 43 26 34 33 62 69 64 65 60 65 61 62 69 78 86 91 78 69 66 64 66 73 66 58 70 79 86 78 58 37 20 10 10 11 22 46 78 89 98 98 98 96 94 94
67 66 60 58 64 51 49 30 48 62 55 55 59 65 65 59 62 70 82 80 69 63 61 59 60 67 71 65 76 60 38 28 24 23 19 13 17 33 54 68 84 91 91 95 97 94 96 96 94
61 69 66 56 54 68 75 49 50 46 49 56 70 80 67 68 97 80 80 80 74 70 69 63 65 74 64 47 42 48 44 27 21 14 15 42 60 72 85 86 90 95 100 97 95 96 97 97 96